Albany, NY

12:13 PM EDT on July 23, 2017 (GMT -0400)
Albany International

Weather History for KALB - March, 2013

Change the Weather History Date:

Saturday, March 9, 2013

  Actual Average Record
Temperature  
Mean Temperature 35 °F 32 °F  
Max Temperature 50 °F 41 °F 81 °F (2016)
Min Temperature 20 °F 23 °F -14 °F (1943)
Degree Days  
Heating Degree Days 30 33  
Month to date heating degree days 287 306  
Since 1 July heating degree days 4825 5250  
Cooling Degree Days 0 0  
Month to date cooling degree days 0 0  
Year to date cooling degree days 0 0  
Moisture  
Dew Point 22 °F    
Average Humidity 60    
Maximum Humidity 88    
Minimum Humidity 31    
Precipitation  
Precipitation 0.00 in 0.10 in 0.93 in (2009)
Month to date precipitation 0.75 0.87  
Year to date precipitation 3.88 5.66  
Snow  
Snow 0.00 in 0.40 in 6.90 in (1961)
Month to date snowfall 10.8 4.1  
Since 1 July snowfall 41.5 51.0  
Snow Depth 6.00 in    
Sea Level Pressure  
Sea Level Pressure 30.33 in    
Wind  
Wind Speed 4 mph (North)    
Max Wind Speed 9 mph    
Max Gust Speed 13 mph    
Visibility 10 miles    
Events      
T = Trace of Precipitation, MM = Missing Value Source: NWS Daily Summary

Daily Weather History Graph

Daily Weather History Graph

Search for Another Location

Airport or City:

Trip Planner

Search our weather history database for the weather conditions in past years. The results will help you decide how hot, cold, wet, or windy it might be!

Date:

Astronomy

Mar. 09, 2013 Rise Set
Actual Time 6:17 AM EST 5:54 PM EST
Civil Twilight 5:49 AM EST 6:22 PM EST
Nautical Twilight 5:16 AM EST 6:55 PM EST
Astronomical Twilight 4:43 AM EST 7:28 PM EST
Moon 4:42 AM EST (3/9) 3:52 PM EST (3/9)
Length of Visible Light 12h 33m
Length of Day
11h 37m
Waning Crescent, 5% of the Moon is Illuminated
Mar 9
Waning Crescent
Mar 11
New
Mar 19
First Quarter
Mar 27
Full
Apr 3
Last Quarter

Hourly Weather History & Observations

Time (EST) Temp. Windchill Dew Point Humidity Pressure Visibility Wind Dir Wind Speed Gust Speed Precip Events Conditions
12:51 AM 28.0 °F 24.2 °F 23.0 °F 81% 30.31 in 10.0 mi North 3.5 mph - N/A   Clear
1:51 AM 26.1 °F 21.9 °F 23.0 °F 88% 30.31 in 10.0 mi NNE 3.5 mph - N/A   Clear
2:51 AM 25.0 °F - 21.9 °F 88% 30.30 in 10.0 mi Calm Calm - N/A   Clear
3:51 AM 24.1 °F 17.0 °F 21.0 °F 88% 30.31 in 10.0 mi NNW 5.8 mph - N/A   Clear
4:51 AM 25.0 °F 19.3 °F 21.0 °F 85% 30.33 in 10.0 mi NNW 4.6 mph - N/A   Clear
5:51 AM 23.0 °F 17.0 °F 19.9 °F 88% 30.34 in 10.0 mi North 4.6 mph - N/A   Clear
6:51 AM 21.0 °F 13.4 °F 18.0 °F 88% 30.35 in 10.0 mi North 5.8 mph - N/A   Clear
7:51 AM 26.1 °F 20.5 °F 21.0 °F 81% 30.36 in 10.0 mi North 4.6 mph - N/A   Clear
8:51 AM 32.0 °F 26.4 °F 21.9 °F 66% 30.38 in 10.0 mi North 5.8 mph - N/A   Clear
9:51 AM 35.1 °F 29.3 °F 23.0 °F 61% 30.37 in 10.0 mi NNW 6.9 mph - N/A   Clear
10:51 AM 37.9 °F 33.5 °F 21.9 °F 53% 30.36 in 10.0 mi NNW 5.8 mph - N/A   Clear
11:51 AM 41.0 °F 38.0 °F 21.9 °F 47% 30.35 in 10.0 mi NNE 4.6 mph - N/A   Clear
12:51 PM 44.1 °F 40.8 °F 21.9 °F 42% 30.32 in 10.0 mi NNW 5.8 mph - N/A   Partly Cloudy
1:51 PM 44.1 °F 41.5 °F 21.0 °F 40% 30.30 in 10.0 mi ENE 4.6 mph - N/A   Partly Cloudy
2:51 PM 48.0 °F - 19.9 °F 33% 30.30 in 10.0 mi NNW 6.9 mph - N/A   Partly Cloudy
3:51 PM 48.9 °F - 21.0 °F 33% 30.30 in 10.0 mi NNW 6.9 mph - N/A   Partly Cloudy
4:51 PM 46.9 °F - 23.0 °F 39% 30.30 in 10.0 mi NNW 6.9 mph - N/A   Clear
5:51 PM 46.0 °F 44.8 °F 21.9 °F 39% 30.31 in 10.0 mi North 3.5 mph - N/A   Partly Cloudy
6:51 PM 43.0 °F 41.3 °F 21.9 °F 43% 30.32 in 10.0 mi North 3.5 mph - N/A   Partly Cloudy
7:51 PM 37.0 °F - 24.1 °F 59% 30.32 in 10.0 mi Calm Calm - N/A   Partly Cloudy
8:51 PM 32.0 °F - 23.0 °F 69% 30.33 in 10.0 mi Calm Calm - N/A   Partly Cloudy
9:51 PM 33.1 °F - 21.9 °F 64% 30.34 in 10.0 mi Calm Calm - N/A   Partly Cloudy
10:51 PM 28.9 °F - 21.0 °F 72% 30.34 in 10.0 mi Calm Calm - N/A   Partly Cloudy
11:51 PM 26.1 °F - 19.9 °F 78% 30.34 in 10.0 mi Calm Calm - N/A   Clear